Location: Bishop�s Knoyle
(51.0728°N, 2.1714°W)
Time: 02:29:20
(UTC+00:00)

ISS - Pass Details

Date: 26 September 2021
Orbit: 417 x 423 km, 51.6° (Epoch: 27 October)

Event Time Altitude Azimuth Distance (km) Brightness Sun altitude
Rises 20:32:07 0° 283° (WNW) 2,369 1.3 -24.1°
Reaches altitude 10° 20:34:13 10° 281° (W) 1,504 0.0 -24.4°
Enters shadow 20:36:12 32° 272° (W) 748 -2.0 -24.7°
